Volver al catálogo

COSMOS 970 DEB

ActivoLEO
NORAD 12865·DEBRIS·🇷🇺 Russia

Lanzado Dec 21, 1977 desde Baikonur Cosmodrome

Loading…

Próximos Pases (próximas 24 horas)

TLE

EnvejeciendoSource: Space-Track

Época: Sep 11, 2026, 04:21 UTC

1 12865U 77121AT  26254.18159485  .00000318  00000-0  40868-3 0  9991
2 12865  65.7709 317.0454 0063375 356.0862  34.9398 13.75453863109018

Sigue COSMOS 970 DEB en tiempo real con AllMySat

Download on the App Store